{"data":{"norad_id":58842,"intl_designator":"2024-017S","name":"STARLINK-31228","alt_names":[],"object_type":"PAYLOAD","status":"ACTIVE","operator":null,"country":"US","launch_date":"2024-01-24","launch_site_code":"AFWTR","launch_vehicle":null,"mission":null,"orbit_class":"UNKNOWN","rcs_meters":null,"size_class":null,"mass_kg":null,"dimensions":null,"purposes":["comms"],"wikipedia_slug":null,"has_3d_model":false,"image_url":null,"decayed_at":null,"tle_current":{"epoch":"2026-09-20T14:44:51.048672Z","epoch_age_seconds":142738,"freshness":"FRESH","line1":"1 58842U 24017S   26263.61447973  .00004016  00000+0  12995-3 0  9990","line2":"2 58842  53.1627  17.2483 0001273  78.1067 282.0078 15.34394841149924","mean_motion":15.34394841,"eccentricity":0.0001273,"inclination_deg":53.1627,"raan_deg":17.2483,"arg_perigee_deg":78.1067,"mean_anomaly_deg":282.0078,"bstar":0.00012995,"rev_number":14992,"period_min":93.848073619794,"perigee_km":461.84773297072,"apogee_km":463.58941479983,"semimajor_km":6840.8555738853,"source":"CELESTRAK","updated_at":"2026-09-21T09:00:33.985644Z"}}}